Time,TemperatureF,DewpointF,PressureIn,WindDirection,WindDirectionDegrees,WindSpeedMPH,WindSpeedGustMPH,Humidity,HourlyPrecipIn,Conditions,Clouds,dailyrainin,SolarRadiationWatts/m^2,SoftwareType,DateUTC
2013-07-21 00:07:00,70.6,65.0,29.83,NNW,338,2.0,12.0,81,0.00,,,0.00,0,weatherlink.com 1.10,2013-07-21 05:07:00,
2013-07-21 00:22:00,67.4,59.0,29.85,ENE,69,13.0,22.0,74,0.00,,,0.00,0,weatherlink.com 1.10,2013-07-21 05:22:00,
2013-07-21 00:37:00,65.7,58.0,29.84,NE,49,7.0,17.0,76,0.00,,,0.00,0,weatherlink.com 1.10,2013-07-21 05:37:00,
2013-07-21 00:52:00,65.0,58.0,29.83,ENE,66,15.0,18.0,79,0.00,,,0.00,0,weatherlink.com 1.10,2013-07-21 05:52:00,
2013-07-21 01:07:00,63.5,58.0,29.82,ENE,74,9.0,23.0,82,0.00,,,0.00,0,weatherlink.com 1.10,2013-07-21 06:07:00,
2013-07-21 01:22:00,62.9,58.0,29.82,ENE,71,16.0,18.0,85,0.00,,,0.00,0,weatherlink.com 1.10,2013-07-21 06:22:00,
2013-07-21 01:37:00,63.3,58.0,29.80,ENE,66,14.0,21.0,84,0.00,,,0.00,0,weatherlink.com 1.10,2013-07-21 06:37:00,
2013-07-21 01:52:00,63.4,58.0,29.80,ENE,78,8.0,22.0,83,0.00,,,0.00,0,weatherlink.com 1.10,2013-07-21 06:52:00,
2013-07-21 02:07:00,63.1,58.0,29.80,ENE,71,17.0,22.0,83,0.00,,,0.00,0,weatherlink.com 1.10,2013-07-21 07:07:00,
2013-07-21 02:22:00,62.6,58.0,29.79,East,90,11.0,18.0,84,0.00,,,0.00,0,weatherlink.com 1.10,2013-07-21 07:22:00,
2013-07-21 02:37:00,62.4,58.0,29.78,ENE,74,4.0,15.0,85,0.00,,,0.00,0,weatherlink.com 1.10,2013-07-21 07:37:00,
2013-07-21 02:52:00,62.2,58.0,29.78,East,85,3.0,16.0,85,0.00,,,0.00,0,weatherlink.com 1.10,2013-07-21 07:52:00,
2013-07-21 03:07:00,61.8,58.0,29.78,East,89,0.0,8.0,86,0.00,,,0.00,0,weatherlink.com 1.10,2013-07-21 08:07:00,
2013-07-21 03:22:00,61.6,57.0,29.77,ESE,104,0.0,8.0,86,0.00,,,0.00,0,weatherlink.com 1.10,2013-07-21 08:22:00,
2013-07-21 03:37:00,61.4,57.0,29.77,SSE,159,1.0,7.0,86,0.00,,,0.00,0,weatherlink.com 1.10,2013-07-21 08:37:00,
2013-07-21 03:53:00,61.1,57.0,29.76,SE,140,0.0,9.0,87,0.00,,,0.00,0,weatherlink.com 1.10,2013-07-21 08:53:00,
2013-07-21 04:08:00,61.0,57.0,29.76,South,173,0.0,3.0,87,0.00,,,0.00,0,weatherlink.com 1.10,2013-07-21 09:08:00,
2013-07-21 04:23:00,60.8,57.0,29.76,South,175,0.0,1.0,87,0.00,,,0.00,0,weatherlink.com 1.10,2013-07-21 09:23:00,
2013-07-21 04:38:00,60.6,57.0,29.75,South,178,0.0,2.0,88,0.00,,,0.00,0,weatherlink.com 1.10,2013-07-21 09:38:00,
2013-07-21 04:53:00,60.6,57.0,29.75,SSE,153,0.0,4.0,88,0.00,,,0.00,0,weatherlink.com 1.10,2013-07-21 09:53:00,
2013-07-21 05:08:00,60.7,57.0,29.74,SSE,148,0.0,7.0,88,0.00,,,0.00,0,weatherlink.com 1.10,2013-07-21 10:08:00,
2013-07-21 05:23:00,60.7,57.0,29.73,SE,142,0.0,7.0,87,0.00,,,0.00,0,weatherlink.com 1.10,2013-07-21 10:23:00,
2013-07-21 05:38:00,60.5,57.0,29.74,South,185,0.0,5.0,87,0.00,,,0.00,0,weatherlink.com 1.10,2013-07-21 10:38:00,
2013-07-21 05:53:00,60.3,57.0,29.76,South,185,0.0,3.0,88,0.00,,,0.00,0,weatherlink.com 1.10,2013-07-21 10:53:00,
2013-07-21 06:08:00,60.3,57.0,29.76,SSW,200,0.0,4.0,87,0.00,,,0.00,0,weatherlink.com 1.10,2013-07-21 11:08:00,
2013-07-21 06:23:00,60.6,57.0,29.77,South,188,0.0,0.0,87,0.00,,,0.00,0,weatherlink.com 1.10,2013-07-21 11:23:00,
2013-07-21 06:38:00,61.4,57.0,29.78,South,188,0.0,0.0,85,0.00,,,0.00,5,weatherlink.com 1.10,2013-07-21 11:38:00,
2013-07-21 06:53:00,60.5,56.0,29.78,South,169,0.0,0.0,84,0.00,,,0.00,14,weatherlink.com 1.10,2013-07-21 11:53:00,
2013-07-21 07:08:00,59.8,56.0,29.78,SSE,155,0.0,0.0,88,0.00,,,0.00,28,weatherlink.com 1.10,2013-07-21 12:08:00,
2013-07-21 07:23:00,61.4,58.0,29.81,ENE,65,0.0,1.0,87,0.00,,,0.00,65,weatherlink.com 1.10,2013-07-21 12:23:00,
2013-07-21 07:38:00,62.6,58.0,29.82,NNE,27,0.0,0.0,85,0.00,,,0.00,104,weatherlink.com 1.10,2013-07-21 12:38:00,
2013-07-21 07:53:00,63.3,58.0,29.84,NNE,31,2.0,8.0,84,0.00,,,0.00,70,weatherlink.com 1.10,2013-07-21 12:53:00,
2013-07-21 08:08:00,63.1,59.0,29.84,NE,46,0.0,6.0,85,0.00,,,0.00,100,weatherlink.com 1.10,2013-07-21 13:08:00,
2013-07-21 08:23:00,63.7,59.0,29.83,NE,45,0.0,8.0,84,0.00,,,0.00,144,weatherlink.com 1.10,2013-07-21 13:23:00,
2013-07-21 08:38:00,65.1,59.0,29.83,NNE,28,0.0,6.0,81,0.00,,,0.00,183,weatherlink.com 1.10,2013-07-21 13:38:00,
2013-07-21 08:53:00,66.3,59.0,29.83,ENE,68,2.0,7.0,78,0.00,,,0.00,214,weatherlink.com 1.10,2013-07-21 13:53:00,
2013-07-21 09:08:00,67.6,60.0,29.83,ENE,74,2.0,7.0,76,0.00,,,0.00,193,weatherlink.com 1.10,2013-07-21 14:08:00,
2013-07-21 09:23:00,68.5,60.0,29.83,NE,40,4.0,6.0,74,0.00,,,0.00,213,weatherlink.com 1.10,2013-07-21 14:23:00,
2013-07-21 09:38:00,70.1,60.0,29.83,ENE,65,2.0,8.0,70,0.00,,,0.00,134,weatherlink.com 1.10,2013-07-21 14:38:00,
2013-07-21 09:53:00,72.0,62.0,29.82,ENE,71,0.0,9.0,70,0.00,,,0.00,519,weatherlink.com 1.10,2013-07-21 14:53:00,
2013-07-21 10:09:00,74.0,60.0,29.82,East,79,6.0,15.0,62,0.00,,,0.00,554,weatherlink.com 1.10,2013-07-21 15:09:00,
2013-07-21 10:24:00,75.9,59.0,29.80,ENE,72,11.0,13.0,56,0.00,,,0.00,596,weatherlink.com 1.10,2013-07-21 15:24:00,
2013-07-21 10:39:00,75.6,60.0,29.79,ENE,76,2.0,16.0,58,0.00,,,0.00,633,weatherlink.com 1.10,2013-07-21 15:39:00,
2013-07-21 10:54:00,76.9,60.0,29.78,East,91,0.0,13.0,56,0.00,,,0.00,670,weatherlink.com 1.10,2013-07-21 15:54:00,
2013-07-21 11:09:00,77.1,61.0,29.78,East,84,10.0,14.0,58,0.00,,,0.00,705,weatherlink.com 1.10,2013-07-21 16:09:00,
2013-07-21 11:24:00,77.7,63.0,29.77,East,90,8.0,14.0,61,0.00,,,0.00,738,weatherlink.com 1.10,2013-07-21 16:24:00,
2013-07-21 11:39:00,77.5,63.0,29.77,SE,143,7.0,12.0,61,0.00,,,0.00,766,weatherlink.com 1.10,2013-07-21 16:39:00,
2013-07-21 11:54:00,78.7,63.0,29.77,East,94,6.0,16.0,59,0.00,,,0.00,795,weatherlink.com 1.10,2013-07-21 16:54:00,
2013-07-21 12:09:00,78.9,63.0,29.76,SE,144,0.0,10.0,59,0.00,,,0.00,847,weatherlink.com 1.10,2013-07-21 17:09:00,
2013-07-21 12:24:00,80.5,64.0,29.76,South,175,0.0,11.0,57,0.00,,,0.00,856,weatherlink.com 1.10,2013-07-21 17:24:00,
2013-07-21 12:39:00,81.5,64.0,29.76,SE,143,2.0,8.0,56,0.00,,,0.00,889,weatherlink.com 1.10,2013-07-21 17:39:00,
2013-07-21 12:54:00,81.5,64.0,29.75,NNE,30,0.0,17.0,55,0.00,,,0.00,930,weatherlink.com 1.10,2013-07-21 17:54:00,
2013-07-21 13:09:00,82.6,65.0,29.75,ESE,117,7.0,12.0,55,0.00,,,0.00,909,weatherlink.com 1.10,2013-07-21 18:09:00,
2013-07-21 13:24:00,82.8,64.0,29.74,SE,125,5.0,9.0,54,0.00,,,0.00,902,weatherlink.com 1.10,2013-07-21 18:24:00,
2013-07-21 13:39:00,83.7,65.0,29.73,SSE,165,0.0,10.0,53,0.00,,,0.00,902,weatherlink.com 1.10,2013-07-21 18:39:00,
2013-07-21 13:54:00,83.4,64.0,29.73,East,97,0.0,9.0,52,0.00,,,0.00,905,weatherlink.com 1.10,2013-07-21 18:54:00,
2013-07-21 14:09:00,84.6,64.0,29.72,ESE,103,0.0,14.0,51,0.00,,,0.00,900,weatherlink.com 1.10,2013-07-21 19:09:00,
2013-07-21 14:24:00,85.6,65.0,29.71,East,84,5.0,10.0,50,0.00,,,0.00,895,weatherlink.com 1.10,2013-07-21 19:24:00,
2013-07-21 14:39:00,85.7,65.0,29.71,SE,133,7.0,11.0,51,0.00,,,0.00,891,weatherlink.com 1.10,2013-07-21 19:39:00,
2013-07-21 14:54:00,86.6,66.0,29.70,ESE,123,0.0,11.0,50,0.00,,,0.00,879,weatherlink.com 1.10,2013-07-21 19:54:00,
2013-07-21 15:10:00,86.9,64.0,29.70,South,180,0.0,12.0,46,0.00,,,0.00,861,weatherlink.com 1.10,2013-07-21 20:10:00,
2013-07-21 15:25:00,87.0,64.0,29.70,SE,136,3.0,13.0,47,0.00,,,0.00,840,weatherlink.com 1.10,2013-07-21 20:25:00,
2013-07-21 15:40:00,86.5,63.0,29.69,South,175,0.0,17.0,46,0.00,,,0.00,817,weatherlink.com 1.10,2013-07-21 20:40:00,
2013-07-21 15:55:00,87.6,64.0,29.69,South,184,4.0,10.0,45,0.00,,,0.00,791,weatherlink.com 1.10,2013-07-21 20:55:00,
2013-07-21 16:10:00,87.2,63.0,29.69,SE,126,5.0,12.0,45,0.00,,,0.00,759,weatherlink.com 1.10,2013-07-21 21:10:00,
2013-07-21 16:25:00,88.2,62.0,29.69,SSE,165,0.0,10.0,42,0.00,,,0.00,733,weatherlink.com 1.10,2013-07-21 21:25:00,
2013-07-21 16:40:00,88.9,62.0,29.68,South,174,3.0,14.0,41,0.00,,,0.00,703,weatherlink.com 1.10,2013-07-21 21:40:00,
2013-07-21 16:55:00,88.9,62.0,29.68,SSW,210,2.0,12.0,41,0.00,,,0.00,666,weatherlink.com 1.10,2013-07-21 21:55:00,
2013-07-21 17:10:00,89.4,62.0,29.68,SSE,165,2.0,13.0,40,0.00,,,0.00,629,weatherlink.com 1.10,2013-07-21 22:10:00,
2013-07-21 17:25:00,89.9,61.0,29.67,SSW,211,7.0,12.0,38,0.00,,,0.00,591,weatherlink.com 1.10,2013-07-21 22:25:00,
2013-07-21 17:40:00,89.2,61.0,29.67,South,180,1.0,14.0,39,0.00,,,0.00,548,weatherlink.com 1.10,2013-07-21 22:40:00,
2013-07-21 17:55:00,89.4,61.0,29.67,South,178,2.0,12.0,39,0.00,,,0.00,506,weatherlink.com 1.10,2013-07-21 22:55:00,
2013-07-21 18:10:00,89.5,62.0,29.66,SSE,168,0.0,10.0,40,0.00,,,0.00,464,weatherlink.com 1.10,2013-07-21 23:10:00,
2013-07-21 18:25:00,90.4,61.0,29.66,SSW,196,6.0,12.0,38,0.00,,,0.00,420,weatherlink.com 1.10,2013-07-21 23:25:00,
2013-07-21 18:40:00,90.3,61.0,29.65,South,180,1.0,13.0,37,0.00,,,0.00,374,weatherlink.com 1.10,2013-07-21 23:40:00,
2013-07-21 18:55:00,90.2,61.0,29.66,SW,215,11.0,11.0,38,0.00,,,0.00,327,weatherlink.com 1.10,2013-07-21 23:55:00,
2013-07-21 19:10:00,89.9,61.0,29.65,South,187,5.0,12.0,38,0.00,,,0.00,283,weatherlink.com 1.10,2013-07-22 00:10:00,
2013-07-21 19:25:00,89.9,61.0,29.65,SSW,200,6.0,9.0,38,0.00,,,0.00,236,weatherlink.com 1.10,2013-07-22 00:25:00,
2013-07-21 19:40:00,89.6,61.0,29.65,South,169,2.0,11.0,38,0.00,,,0.00,181,weatherlink.com 1.10,2013-07-22 00:40:00,
2013-07-21 19:55:00,89.0,62.0,29.64,SE,134,0.0,10.0,40,0.00,,,0.00,132,weatherlink.com 1.10,2013-07-22 00:55:00,
2013-07-21 20:10:00,88.3,63.0,29.64,SSE,159,0.0,6.0,43,0.00,,,0.00,83,weatherlink.com 1.10,2013-07-22 01:10:00,
2013-07-21 20:25:00,87.3,64.0,29.64,SSE,157,0.0,7.0,46,0.00,,,0.00,46,weatherlink.com 1.10,2013-07-22 01:25:00,
2013-07-21 20:40:00,85.9,64.0,29.64,SSE,168,3.0,9.0,48,0.00,,,0.00,19,weatherlink.com 1.10,2013-07-22 01:40:00,
2013-07-21 20:55:00,84.6,63.0,29.64,SSE,161,0.0,9.0,49,0.00,,,0.00,11,weatherlink.com 1.10,2013-07-22 01:55:00,
2013-07-21 21:10:00,83.1,64.0,29.65,SSE,163,0.0,7.0,53,0.00,,,0.00,0,weatherlink.com 1.10,2013-07-22 02:10:00,
2013-07-21 21:25:00,81.9,64.0,29.66,South,169,3.0,5.0,54,0.00,,,0.00,0,weatherlink.com 1.10,2013-07-22 02:25:00,
2013-07-21 21:40:00,80.8,64.0,29.66,SE,129,5.0,6.0,56,0.00,,,0.00,0,weatherlink.com 1.10,2013-07-22 02:40:00,
2013-07-21 21:55:00,80.5,64.0,29.66,South,180,0.0,10.0,58,0.00,,,0.00,0,weatherlink.com 1.10,2013-07-22 02:55:00,
2013-07-21 22:10:00,79.4,65.0,29.66,South,171,2.0,6.0,61,0.00,,,0.00,0,weatherlink.com 1.10,2013-07-22 03:10:00,
2013-07-21 22:25:00,78.7,65.0,29.65,SSE,165,2.0,7.0,63,0.00,,,0.00,0,weatherlink.com 1.10,2013-07-22 03:25:00,
2013-07-21 22:40:00,78.0,65.0,29.65,SSE,161,0.0,8.0,65,0.00,,,0.00,0,weatherlink.com 1.10,2013-07-22 03:40:00,
2013-07-21 22:55:00,77.7,65.0,29.66,South,169,2.0,7.0,66,0.00,,,0.00,0,weatherlink.com 1.10,2013-07-22 03:55:00,
2013-07-21 23:10:00,77.2,65.0,29.66,South,178,3.0,7.0,67,0.00,,,0.00,0,weatherlink.com 1.10,2013-07-22 04:10:00,
2013-07-21 23:25:00,77.2,65.0,29.66,South,178,0.0,8.0,67,0.00,,,0.00,0,weatherlink.com 1.10,2013-07-22 04:25:00,
2013-07-21 23:40:00,77.3,65.0,29.66,SSW,192,3.0,8.0,67,0.00,,,0.00,0,weatherlink.com 1.10,2013-07-22 04:40:00,
2013-07-21 23:55:00,76.5,66.0,29.66,SSW,196,0.0,9.0,69,0.00,,,0.00,0,weatherlink.com 1.10,2013-07-22 04:55:00,